COSMOS 1275 DEB, 12654

Orbit data source: Space-Track

COSMOS 1275 DEB, 12654 is space debris in LEO originally from a launch on Thu, 04 Jun 1981 UTC launched from the Plesetsk Missile And Space Complex (PKMTR). Debris objects in space refer to the collection of defunct objects orbiting the Earth. Examples of debris include non-operational satellites, rocket bodies, and fragments generated from explosions, collisions, or faulty payload assembly.

Loading next visibility...
Identifier
12654, 1981-053J
Orbit
LEO
Country
Flag of CISCIS
Related business
Manufacturer
Unknown
Mission
Spacecraft
Bus & Motor
Unknown
Mass
Unknown
Launch date (UTC)
1981-06-04 (44 years ago)
Launch vehicle
Unknown
Launch site
Plesetsk Missile And Space Complex (PKMTR)
Object type
Payload
Rocket body
Debris
Shape & HBR
Unknown shape, 0.2 m
Radar Cross Section
Medium (>0.1 m² and <1 m²)

Expand to show TLE details & history
Last TLE update: 19 hours ago

TLE from 19 hours ago
0 COSMOS 1275 DEB
1 12654U 81053J   25290.65161177  .00001862  00000-0  10698-2 0  9990
2 12654  82.9823  49.0628 0040814 246.8650 175.7288 14.08436265253950
Epoch: 2025-10-17T15:38Z
TLE epoch observation values (Epoch: 2025-10-17T15:38:19.256Z)
Latitude
61.90235°
Longitude
161.34789°
Altitude
904.827 km
Speed
7.39 km/s
True Right ascension
04h 09m 17s
True Declination
61° 45' 44"
Sunlit
Object was in full shadow at epoch
Visualization orbit readout
Latitude
Unknown
Longitude
Unknown
Altitude
Unknown
Speed
Unknown
Apparent Right ascension
Unknown
Apparent Declination
Unknown
Sunlit
N/A
Visualization observer readout
Local Sidereal Time
05:54:58
Azimuth
Unknown
Elevation
Unknown
Doppler factor
Unknown
Orbital elements
Apogee altitude
891.378 km
Perigee altitude
832.28 km
Semi-major axis
7,239.966 km
Eccentricity
0.00408
Inclination
82.9823°
RAAN
49.0628°
Arg. of periapsis
246.865°
True anomaly
175.76346°
Mean anomaly
175.7288°
Eccentric anomaly
175.74615°
Mean motion
3.52321 °/min
Orbital period
102.18 mins
BSTAR
0.0010698
Loading maneuver chart data...
Computing Atmospheric mass density...

Documentation

Showing up to 5 results
|